Location: Finnegan
(51.1333°N, 112.0833°W)
Time: 16:23:11
(UTC+00:00)

X-37B - Visible Passes

Search period start: 03 December 2022 00:00
Search period end: 13 December 2022 00:00
Orbit: 277 x 277 km, 45.0° (Epoch: 01 November)

Date Brightness Start Highest point End Pass type
(mag) Time Alt. Az. Time Alt. Az. Time Alt. Az.
10 Dec 2.7 01:03:24 10° S 01:03:59 11° SSE 01:04:15 10° SSE visible
11 Dec 2.4 01:03:05 10° SSW 01:04:29 14° SSE 01:04:54 13° SSE visible
12 Dec 2.2 01:03:17 10° SSW 01:05:00 17° S 01:05:33 16° SSE visible
